| time (UTC) | temp F | wind direction | speed MPH | gust MPH | rain 1hr in | rain 24hr in | rain mn in | humidity % | barometer mb |
| 20260831092205 | 57 | 290 | 4.0 | 13.0 | 0.00 | 0.78 | 0.02 | 90 | 1013.0 |
| 20260831091204 | 57 | 286 | 6.0 | 13.0 | 0.00 | 0.78 | 0.02 | 91 | 1012.9 |
| 20260831090704 | 57 | 282 | 5.0 | 12.0 | 0.00 | 0.78 | 0.02 | 93 | 1012.9 |
| 20260831090204 | 57 | 279 | 7.0 | 12.0 | 0.00 | 0.78 | 0.02 | 93 | 1012.9 |
| 20260831085704 | 56 | 269 | 5.0 | 12.0 | 0.00 | 0.78 | 0.02 | 94 | 1012.8 |
| 20260831085204 | 56 | 299 | 5.0 | 12.0 | 0.00 | 0.78 | 0.02 | 95 | 1012.8 |
| 20260831084704 | 56 | 268 | 4.0 | 8.0 | 0.00 | 0.78 | 0.02 | 95 | 1012.6 |
| 20260831084204 | 56 | 278 | 4.0 | 9.0 | 0.00 | 0.78 | 0.02 | 95 | 1012.6 |
| 20260831083704 | 55 | 263 | 6.0 | 10.0 | 0.00 | 0.78 | 0.02 | 95 | 1012.5 |
| 20260831083204 | 55 | 266 | 4.0 | 9.0 | 0.00 | 0.78 | 0.02 | 95 | 1012.5 |
| 20260831082704 | 54 | 270 | 3.0 | 7.0 | 0.00 | 0.78 | 0.02 | 95 | 1012.5 |
| 20260831082204 | 54 | 264 | 5.0 | 9.0 | 0.00 | 0.78 | 0.02 | 95 | 1012.4 |
| 20260831081704 | 54 | 275 | 4.0 | 8.0 | 0.01 | 0.78 | 0.02 | 95 | 1012.4 |
| 20260831081204 | 54 | 255 | 5.0 | 9.0 | 0.01 | 0.78 | 0.02 | 96 | 1012.3 |
| 20260831080704 | 54 | 255 | 5.0 | 9.0 | 0.01 | 0.78 | 0.02 | 95 | 1012.2 |
| 20260831080204 | 54 | 266 | 3.0 | 8.0 | 0.01 | 0.78 | 0.02 | 95 | 1012.2 |
| 20260831075704 | 54 | 263 | 5.0 | 9.0 | 0.01 | 0.78 | 0.02 | 95 | 1012.2 |
| 20260831075204 | 53 | 260 | 5.0 | 7.0 | 0.01 | 0.78 | 0.02 | 95 | 1012.1 |
| 20260831074204 | 53 | 280 | 2.0 | 6.0 | 0.01 | 0.78 | 0.02 | 95 | 1012.1 |
| 20260831073704 | 53 | 274 | 3.0 | 8.0 | 0.01 | 0.78 | 0.02 | 95 | 1012.0 |
| 20260831073203 | 53 | 308 | 3.0 | 12.0 | 0.01 | 0.78 | 0.02 | 95 | 1012.0 |
| 20260831072704 | 53 | 276 | 3.0 | 10.0 | 0.01 | 0.78 | 0.02 | 95 | 1012.0 |
| 20260831072204 | 53 | 280 | 5.0 | 12.0 | 0.01 | 0.78 | 0.02 | 95 | 1011.9 |
| 20260831071704 | 53 | 281 | 6.0 | 9.0 | 0.00 | 0.77 | 0.01 | 95 | 1012.0 |
| 20260831071204 | 53 | 233 | 5.0 | 8.0 | 0.00 | 0.77 | 0.01 | 95 | 1011.7 |
| 20260831070704 | 53 | 253 | 6.0 | 10.0 | 0.00 | 0.77 | 0.01 | 95 | 1011.7 |
| 20260831070203 | 53 | 247 | 3.0 | 7.0 | 0.00 | 0.77 | 0.01 | 95 | 1011.5 |
| 20260831065205 | 52 | 233 | 3.0 | 5.0 | 0.00 | 0.77 | 0.01 | 95 | 1011.5 |
| 20260831064704 | 52 | 237 | 2.0 | 3.0 | 0.00 | 0.77 | 0.01 | 95 | 1011.3 |
| 20260831064204 | 52 | 229 | 3.0 | 5.0 | 0.00 | 0.77 | 0.01 | 95 | 1011.2 |
| 20260831063704 | 52 | 236 | 3.0 | 3.0 | 0.00 | 0.77 | 0.01 | 95 | 1011.2 |
| 20260831063204 | 53 | 237 | 3.0 | 5.0 | 0.00 | 0.77 | 0.01 | 95 | 1010.9 |
| 20260831062204 | 52 | 232 | 2.0 | 3.0 | 0.01 | 0.77 | 0.01 | 95 | 1010.9 |
| 20260831061704 | 52 | 256 | 2.0 | 3.0 | 0.01 | 0.77 | 0.01 | 95 | 1010.8 |
| 20260831061204 | 52 | 222 | 2.0 | 3.0 | 0.01 | 0.77 | 0.01 | 95 | 1010.8 |
| 20260831060705 | 52 | 223 | 2.0 | 3.0 | 0.01 | 0.77 | 0.01 | 95 | 1010.7 |
| 20260831055704 | 52 | 244 | 3.0 | 6.0 | 0.01 | 0.77 | 0.01 | 95 | 1010.7 |
| 20260831055204 | 52 | 267 | 2.0 | 5.0 | 0.01 | 0.77 | 0.01 | 95 | 1010.4 |
| 20260831054704 | 52 | 85 | 1.0 | 2.0 | 0.01 | 0.77 | 0.01 | 95 | 1010.3 |
| 20260831053704 | 52 | 257 | 2.0 | 3.0 | 0.01 | 0.77 | 0.01 | 95 | 1010.3 |
| 20260831053204 | 53 | 259 | 2.0 | 5.0 | 0.01 | 0.77 | 0.01 | 95 | 1010.1 |
| 20260831051704 | 53 | 247 | 3.0 | 3.0 | 0.00 | 0.76 | 0.00 | 95 | 1009.9 |
| 20260831051204 | 53 | 248 | 3.0 | 6.0 | 0.00 | 0.76 | 0.00 | 95 | 1009.9 |
| 20260831050703 | 53 | 251 | 3.0 | 6.0 | 0.00 | 0.76 | 0.00 | 95 | 1009.7 |
| 20260831050204 | 53 | 241 | 3.0 | 5.0 | 0.00 | 0.76 | 0.00 | 95 | 1009.7 |
| 20260831045704 | 53 | 248 | 3.0 | 8.0 | 0.00 | 0.76 | 0.00 | 95 | 1009.7 |
| 20260831044704 | 53 | 276 | 3.0 | 8.0 | 0.00 | 0.76 | 0.00 | 95 | 1009.5 |
| 20260831043204 | 53 | 338 | 1.0 | 5.0 | 0.00 | 0.76 | 0.00 | 95 | 1009.3 |
| 20260831042204 | 53 | 315 | 1.0 | 5.0 | 0.00 | 0.76 | 0.00 | 95 | 1009.1 |
| 20260831041704 | 53 | 300 | 1.0 | 3.0 | 0.00 | 0.76 | 0.00 | 95 | 1009.0 |
| 20260831040203 | 53 | 287 | 5.0 | 10.0 | 0.00 | 0.76 | 0.00 | 95 | 1008.7 |
| 20260831035705 | 53 | 299 | 4.0 | 12.0 | 0.00 | 0.76 | 0.00 | 95 | 1008.7 |
| 20260831035204 | 52 | 292 | 2.0 | 8.0 | 0.00 | 0.76 | 0.00 | 95 | 1008.8 |
| 20260831034705 | 52 | 299 | 2.0 | 6.0 | 0.00 | 0.76 | 0.00 | 95 | 1008.7 |
| 20260831034204 | 52 | 277 | 3.0 | 7.0 | 0.00 | 0.76 | 0.00 | 95 | 1008.5 |
| 20260831033705 | 52 | 275 | 2.0 | 6.0 | 0.00 | 0.76 | 0.00 | 95 | 1008.5 |
| 20260831033204 | 52 | 269 | 4.0 | 9.0 | 0.00 | 0.76 | 0.00 | 95 | 1008.4 |
| 20260831032704 | 53 | 267 | 3.0 | 8.0 | 0.00 | 0.76 | 0.00 | 95 | 1008.4 |
| 20260831032204 | 53 | 281 | 5.0 | 9.0 | 0.00 | 0.76 | 0.00 | 95 | 1008.4 |
| 20260831031704 | 53 | 289 | 2.0 | 5.0 | 0.00 | 0.76 | 0.00 | 95 | 1008.4 |
| 20260831030705 | 53 | 281 | 3.0 | 8.0 | 0.00 | 0.76 | 0.00 | 95 | 1008.2 |
| 20260831030204 | 53 | 292 | 2.0 | 7.0 | 0.00 | 0.76 | 0.00 | 95 | 1008.2 |
| 20260831025704 | 53 | 289 | 2.0 | 9.0 | 0.00 | 0.76 | 0.00 | 95 | 1008.1 |
| 20260831025205 | 53 | 285 | 3.0 | 9.0 | 0.00 | 0.76 | 0.00 | 95 | 1008.1 |
| 20260831024704 | 53 | 308 | 2.0 | 6.0 | 0.00 | 0.76 | 0.00 | 95 | 1008.1 |
| 20260831024203 | 54 | 278 | 2.0 | 6.0 | 0.00 | 0.76 | 0.00 | 95 | 1008.1 |
| 20260831023704 | 53 | 299 | 2.0 | 6.0 | 0.00 | 0.76 | 0.00 | 96 | 1008.1 |
| 20260831023205 | 53 | 276 | 1.0 | 3.0 | 0.00 | 0.76 | 0.00 | 96 | 1007.9 |
| 20260831021704 | 54 | 316 | 3.0 | 9.0 | 0.00 | 0.76 | 0.00 | 95 | 1007.8 |
| 20260831021204 | 54 | 297 | 3.0 | 8.0 | 0.00 | 0.76 | 0.00 | 96 | 1007.7 |
| 20260831015704 | 54 | 352 | 2.0 | 5.0 | 0.00 | 0.76 | 0.00 | 96 | 1007.4 |
| 20260831015204 | 54 | 261 | 1.0 | 5.0 | 0.00 | 0.76 | 0.00 | 96 | 1007.3 |
| 20260831014703 | 54 | 286 | 1.0 | 5.0 | 0.00 | 0.76 | 0.00 | 96 | 1007.1 |
| 20260831014204 | 55 | 298 | 2.0 | 5.0 | 0.00 | 0.76 | 0.00 | 96 | 1007.1 |
| 20260831013704 | 55 | 283 | 2.0 | 5.0 | 0.00 | 0.76 | 0.00 | 96 | 1007.1 |
| 20260831012704 | 55 | 318 | 2.0 | 3.0 | 0.00 | 0.76 | 0.00 | 96 | 1007.2 |
| 20260831012204 | 55 | 322 | 2.0 | 7.0 | 0.00 | 0.76 | 0.00 | 96 | 1007.1 |
| 20260831011704 | 55 | 310 | 2.0 | 3.0 | 0.00 | 0.76 | 0.00 | 96 | 1007.1 |
| 20260831011204 | 56 | 330 | 2.0 | 6.0 | 0.00 | 0.76 | 0.00 | 96 | 1007.1 |
| 20260831010205 | 56 | 294 | 1.0 | 7.0 | 0.00 | 0.76 | 0.00 | 96 | 1006.8 |
| 20260831005704 | 56 | 322 | 3.0 | 6.0 | 0.00 | 0.76 | 0.00 | 96 | 1006.8 |
| 20260831005204 | 56 | 314 | 4.0 | 7.0 | 0.00 | 0.76 | 0.00 | 96 | 1006.8 |
| 20260831004204 | 57 | 313 | 2.0 | 3.0 | 0.00 | 0.76 | 0.00 | 96 | 1006.6 |
| 20260831003704 | 57 | 309 | 3.0 | 7.0 | 0.00 | 0.76 | 0.00 | 96 | 1006.5 |
| 20260831003204 | 57 | 330 | 2.0 | 5.0 | 0.00 | 0.76 | 0.00 | 96 | 1006.3 |
| 20260831002704 | 56 | 281 | 2.0 | 8.0 | 0.00 | 0.76 | 0.00 | 96 | 1006.3 |
| 20260831002204 | 56 | 284 | 3.0 | 9.0 | 0.00 | 0.76 | 0.00 | 96 | 1006.3 |
| 20260831001704 | 56 | 280 | 1.0 | 6.0 | 0.00 | 0.76 | 0.00 | 96 | 1006.3 |
| 20260831001205 | 56 | 262 | 1.0 | 2.0 | 0.00 | 0.76 | 0.00 | 96 | 1006.2 |
| 20260831000704 | 56 | 283 | 2.0 | 3.0 | 0.00 | 0.76 | 0.00 | 96 | 1006.2 |
| 20260831000204 | 56 | 321 | 2.0 | 3.0 | 0.00 | 0.76 | 0.00 | 96 | 1006.1 |
| 20260830235704 | 56 | 305 | 1.0 | 2.0 | 0.00 | 0.76 | 0.00 | 96 | 1006.0 |
| 20260830234704 | 56 | 323 | 2.0 | 5.0 | 0.00 | 0.76 | 0.00 | 96 | 1005.9 |
| 20260830234204 | 56 | 327 | 2.0 | 3.0 | 0.00 | 0.76 | 0.00 | 96 | 1005.9 |
| 20260830233704 | 56 | 304 | 2.0 | 8.0 | 0.00 | 0.76 | 0.00 | 96 | 1005.8 |
| 20260830233204 | 56 | 327 | 2.0 | 3.0 | 0.00 | 0.76 | 0.00 | 96 | 1005.8 |
| 20260830232704 | 56 | 313 | 2.0 | 3.0 | 0.00 | 0.76 | 0.00 | 96 | 1005.6 |
| 20260830232204 | 56 | 280 | 1.0 | 3.0 | 0.02 | 0.76 | 0.00 | 96 | 1005.6 |
| 20260830231705 | 57 | 324 | 1.0 | 3.0 | 0.02 | 0.76 | 0.00 | 96 | 1005.5 |
| 20260830230705 | 57 | 278 | 2.0 | 3.0 | 0.08 | 0.76 | 0.00 | 96 | 1005.4 |
| 20260830230204 | 57 | 299 | 1.0 | 6.0 | 0.08 | 0.76 | 0.00 | 96 | 1005.3 |
| 20260830225704 | 57 | 273 | 2.0 | 5.0 | 0.08 | 0.76 | 0.76 | 96 | 1005.2 |
| 20260830225204 | 58 | 327 | 1.0 | 3.0 | 0.08 | 0.76 | 0.76 | 96 | 1005.0 |
| 20260830224704 | 58 | 333 | 2.0 | 7.0 | 0.08 | 0.76 | 0.76 | 96 | 1004.9 |
| 20260830224204 | 58 | 306 | 2.0 | 6.0 | 0.08 | 0.76 | 0.76 | 96 | 1004.8 |
| 20260830223705 | 58 | 323 | 3.0 | 6.0 | 0.08 | 0.76 | 0.76 | 96 | 1004.7 |
| 20260830223204 | 58 | 338 | 2.0 | 5.0 | 0.08 | 0.76 | 0.76 | 96 | 1004.6 |
| 20260830222704 | 58 | 321 | 1.0 | 5.0 | 0.08 | 0.76 | 0.76 | 96 | 1004.6 |
| 20260830222204 | 58 | 328 | 2.0 | 3.0 | 0.07 | 0.76 | 0.76 | 96 | 1004.5 |
| 20260830221203 | 58 | 281 | 1.0 | 10.0 | 0.06 | 0.74 | 0.74 | 96 | 1004.3 |
| 20260830220704 | 58 | 305 | 2.0 | 6.0 | 0.01 | 0.69 | 0.69 | 96 | 1004.3 |
| 20260830220204 | 58 | 329 | 0.0 | 1.0 | 0.00 | 0.69 | 0.69 | 96 | 1004.1 |
| 20260830215704 | 58 | 329 | 1.0 | 2.0 | 0.00 | 0.69 | 0.69 | 95 | 1004.1 |
| 20260830215204 | 58 | 332 | 2.0 | 3.0 | 0.00 | 0.69 | 0.69 | 95 | 1004.0 |
| 20260830214704 | 58 | 292 | 2.0 | 3.0 | 0.00 | 0.69 | 0.69 | 96 | 1004.0 |
| 20260830214204 | 58 | 331 | 1.0 | 3.0 | 0.00 | 0.69 | 0.69 | 96 | 1003.8 |
| 20260830213704 | 58 | 327 | 1.0 | 3.0 | 0.00 | 0.69 | 0.69 | 96 | 1003.8 |
| 20260830212704 | 58 | 13 | 1.0 | 3.0 | 0.00 | 0.69 | 0.69 | 95 | 1003.7 |
| 20260830212204 | 58 | 355 | 0.0 | 0.0 | 0.00 | 0.69 | 0.69 | 96 | 1003.6 |
| 20260830211704 | 58 | 355 | 0.0 | 0.0 | 0.00 | 0.69 | 0.69 | 96 | 1003.5 |
| 20260830211204 | 58 | 355 | 0.0 | 0.0 | 0.00 | 0.69 | 0.69 | 96 | 1003.5 |
| 20260830210204 | 58 | 355 | 0.0 | 0.0 | 0.00 | 0.69 | 0.69 | 95 | 1003.4 |
| 20260830205704 | 58 | 355 | 0.0 | 0.0 | 0.00 | 0.69 | 0.69 | 95 | 1003.4 |
| 20260830205204 | 57 | 355 | 0.0 | 0.0 | 0.00 | 0.69 | 0.69 | 95 | 1003.3 |
| 20260830204204 | 57 | 355 | 0.0 | 1.0 | 0.00 | 0.69 | 0.69 | 95 | 1003.2 |
| 20260830203704 | 57 | 355 | 0.0 | 2.0 | 0.00 | 0.69 | 0.69 | 95 | 1003.1 |
| 20260830203204 | 57 | 355 | 0.0 | 1.0 | 0.00 | 0.69 | 0.69 | 95 | 1003.1 |
| 20260830202704 | 57 | 355 | 0.0 | 1.0 | 0.00 | 0.69 | 0.69 | 95 | 1003.0 |
| 20260830202204 | 58 | 355 | 1.0 | 3.0 | 0.00 | 0.69 | 0.69 | 95 | 1003.0 |
| 20260830201704 | 58 | 5 | 0.0 | 2.0 | 0.00 | 0.69 | 0.69 | 95 | 1003.0 |
| 20260830201204 | 58 | 32 | 0.0 | 2.0 | 0.00 | 0.69 | 0.69 | 95 | 1002.9 |
| 20260830200704 | 58 | 14 | 1.0 | 3.0 | 0.00 | 0.69 | 0.69 | 95 | 1002.9 |
| 20260830200204 | 58 | 355 | 1.0 | 2.0 | 0.00 | 0.69 | 0.69 | 95 | 1002.8 |
| 20260830195703 | 58 | 20 | 1.0 | 2.0 | 0.00 | 0.69 | 0.69 | 95 | 1002.7 |
| 20260830195204 | 58 | 349 | 1.0 | 3.0 | 0.00 | 0.69 | 0.69 | 95 | 1002.6 |
| 20260830194704 | 58 | 10 | 1.0 | 3.0 | 0.01 | 0.69 | 0.69 | 95 | 1002.6 |
| 20260830194204 | 59 | 340 | 2.0 | 3.0 | 0.01 | 0.69 | 0.69 | 95 | 1002.4 |
| 20260830192704 | 59 | 0 | 2.0 | 3.0 | 0.02 | 0.69 | 0.69 | 95 | 1002.2 |
| 20260830192204 | 59 | 8 | 2.0 | 8.0 | 0.06 | 0.69 | 0.69 | 95 | 1002.2 |
| 20260830191203 | 59 | 13 | 2.0 | 3.0 | 0.06 | 0.69 | 0.69 | 94 | 1002.0 |
| 20260830190704 | 59 | 4 | 3.0 | 7.0 | 0.06 | 0.69 | 0.69 | 95 | 1001.9 |
| 20260830190204 | 59 | 7 | 6.0 | 12.0 | 0.06 | 0.69 | 0.69 | 94 | 1001.7 |
| 20260830185704 | 59 | 346 | 3.0 | 7.0 | 0.06 | 0.69 | 0.69 | 95 | 1001.7 |
| 20260830185203 | 59 | 8 | 2.0 | 6.0 | 0.06 | 0.69 | 0.69 | 94 | 1001.7 |
| 20260830184703 | 59 | 335 | 3.0 | 9.0 | 0.05 | 0.68 | 0.68 | 94 | 1001.6 |
| 20260830184204 | 59 | 17 | 3.0 | 9.0 | 0.05 | 0.68 | 0.68 | 94 | 1001.5 |
| 20260830183704 | 59 | 14 | 3.0 | 5.0 | 0.05 | 0.68 | 0.68 | 94 | 1001.4 |
| 20260830183204 | 59 | 357 | 3.0 | 9.0 | 0.05 | 0.68 | 0.68 | 94 | 1001.4 |
| 20260830182704 | 59 | 12 | 3.0 | 10.0 | 0.04 | 0.67 | 0.67 | 94 | 1001.3 |
| 20260830182203 | 60 | 5 | 4.0 | 8.0 | 0.00 | 0.63 | 0.63 | 94 | 1001.3 |
| 20260830181704 | 60 | 349 | 3.0 | 8.0 | 0.00 | 0.63 | 0.63 | 94 | 1001.2 |
| 20260830181205 | 60 | 327 | 2.0 | 6.0 | 0.00 | 0.63 | 0.63 | 94 | 1001.2 |
| 20260830180205 | 61 | 323 | 1.0 | 5.0 | 0.00 | 0.63 | 0.63 | 94 | 1001.1 |
| 20260830175704 | 61 | 333 | 2.0 | 6.0 | 0.00 | 0.63 | 0.63 | 94 | 1001.0 |
| 20260830175203 | 61 | 321 | 2.0 | 3.0 | 0.00 | 0.63 | 0.63 | 94 | 1001.0 |
| 20260830174704 | 61 | 344 | 1.0 | 5.0 | 0.00 | 0.63 | 0.63 | 94 | 1000.9 |
| 20260830174204 | 61 | 315 | 2.0 | 5.0 | 0.00 | 0.63 | 0.63 | 94 | 1000.9 |
| 20260830173703 | 61 | 282 | 1.0 | 3.0 | 0.00 | 0.63 | 0.63 | 94 | 1000.9 |
| 20260830172703 | 61 | 283 | 2.0 | 3.0 | 0.00 | 0.63 | 0.63 | 94 | 1000.8 |
| 20260830172204 | 60 | 270 | 1.0 | 3.0 | 0.00 | 0.63 | 0.63 | 94 | 1000.8 |
| 20260830171704 | 60 | 294 | 2.0 | 8.0 | 0.00 | 0.63 | 0.63 | 94 | 1000.8 |
| 20260830171204 | 60 | 266 | 3.0 | 6.0 | 0.00 | 0.63 | 0.63 | 94 | 1000.8 |
| 20260830165204 | 60 | 242 | 2.0 | 3.0 | 0.01 | 0.63 | 0.63 | 93 | 1000.4 |
| 20260830164704 | 60 | 230 | 1.0 | 3.0 | 0.01 | 0.63 | 0.63 | 93 | 1000.4 |
| 20260830164203 | 60 | 228 | 1.0 | 3.0 | 0.01 | 0.63 | 0.63 | 93 | 1000.4 |
| 20260830163203 | 59 | 202 | 2.0 | 3.0 | 0.01 | 0.63 | 0.63 | 93 | 1000.4 |
| 20260830162704 | 59 | 169 | 1.0 | 2.0 | 0.01 | 0.63 | 0.63 | 93 | 1000.4 |
| 20260830161704 | 59 | 137 | 1.0 | 3.0 | 0.03 | 0.63 | 0.63 | 93 | 1000.3 |
| 20260830161204 | 59 | 119 | 1.0 | 3.0 | 0.04 | 0.63 | 0.63 | 93 | 1000.3 |
| 20260830160705 | 59 | 107 | 1.0 | 2.0 | 0.08 | 0.62 | 0.62 | 93 | 1000.4 |
| 20260830160203 | 58 | 107 | 1.0 | 2.0 | 0.10 | 0.62 | 0.62 | 92 | 1000.5 |
| 20260830155704 | 58 | 100 | 2.0 | 3.0 | 0.15 | 0.62 | 0.62 | 92 | 1000.4 |
| 20260830155204 | 58 | 85 | 2.0 | 3.0 | 0.16 | 0.62 | 0.62 | 92 | 1000.3 |
| 20260830154704 | 58 | 105 | 1.0 | 2.0 | 0.23 | 0.62 | 0.62 | 92 | 1000.4 |
| 20260830153703 | 58 | 92 | 1.0 | 2.0 | 0.61 | 0.62 | 0.62 | 92 | 1000.4 |
| 20260830153204 | 58 | 137 | 1.0 | 3.0 | 0.61 | 0.62 | 0.62 | 92 | 1000.3 |
| 20260830152704 | 58 | 144 | 3.0 | 5.0 | 0.61 | 0.62 | 0.62 | 91 | 1000.2 |
| 20260830151704 | 58 | 164 | 2.0 | 3.0 | 0.59 | 0.61 | 0.61 | 91 | 1000.2 |
| 20260830150704 | 58 | 101 | 2.0 | 6.0 | 0.56 | 0.57 | 0.57 | 90 | 1000.2 |
| 20260830150205 | 59 | 101 | 4.0 | 7.0 | 0.52 | 0.54 | 0.54 | 90 | 1000.1 |
| 20260830145704 | 59 | 117 | 3.0 | 6.0 | 0.46 | 0.48 | 0.48 | 89 | 1000.3 |
| 20260830145204 | 59 | 25 | 3.0 | 6.0 | 0.45 | 0.46 | 0.46 | 89 | 1000.2 |
| 20260830144704 | 60 | 19 | 5.0 | 9.0 | 0.42 | 0.43 | 0.43 | 88 | 1000.1 |
| 20260830143704 | 62 | 13 | 4.0 | 8.0 | 0.01 | 0.02 | 0.02 | 87 | 1000.0 |
| 20260830143203 | 63 | 350 | 5.0 | 10.0 | 0.00 | 0.02 | 0.02 | 86 | 999.9 |
| 20260830142703 | 64 | 322 | 3.0 | 6.0 | 0.00 | 0.02 | 0.02 | 85 | 999.7 |
| 20260830142204 | 64 | 357 | 3.0 | 5.0 | 0.00 | 0.02 | 0.02 | 85 | 999.7 |
| 20260830141704 | 64 | 30 | 2.0 | 6.0 | 0.00 | 0.02 | 0.02 | 85 | 999.6 |
| 20260830140704 | 65 | 60 | 4.0 | 8.0 | 0.00 | 0.02 | 0.02 | 84 | 999.7 |
| 20260830140204 | 65 | 87 | 4.0 | 8.0 | 0.00 | 0.02 | 0.02 | 83 | 999.8 |
| 20260830135703 | 65 | 108 | 1.0 | 3.0 | 0.00 | 0.02 | 0.02 | 83 | 999.8 |
| 20260830135204 | 65 | 108 | 2.0 | 5.0 | 0.00 | 0.02 | 0.02 | 83 | 999.8 |
| 20260830134205 | 66 | 92 | 3.0 | 6.0 | 0.01 | 0.02 | 0.02 | 82 | 999.6 |
| 20260830132703 | 66 | 157 | 2.0 | 3.0 | 0.02 | 0.02 | 0.02 | 84 | 999.7 |
| 20260830132204 | 65 | 192 | 1.0 | 3.0 | 0.02 | 0.02 | 0.02 | 83 | 999.7 |
| 20260830131704 | 65 | 192 | 2.0 | 5.0 | 0.02 | 0.02 | 0.02 | 84 | 999.7 |
| 20260830131203 | 65 | 165 | 4.0 | 6.0 | 0.02 | 0.02 | 0.02 | 86 | 999.8 |
| 20260830130704 | 65 | 144 | 2.0 | 3.0 | 0.02 | 0.02 | 0.02 | 87 | 999.8 |
| 20260830130203 | 64 | 109 | 3.0 | 5.0 | 0.02 | 0.02 | 0.02 | 86 | 999.6 |
| 20260830125704 | 65 | 180 | 1.0 | 2.0 | 0.02 | 0.02 | 0.02 | 88 | 999.8 |
| 20260830125204 | 64 | 308 | 1.0 | 2.0 | 0.02 | 0.02 | 0.02 | 87 | 999.9 |
| 20260830124704 | 64 | 308 | 1.0 | 3.0 | 0.02 | 0.02 | 0.02 | 87 | 1000.0 |
| 20260830124204 | 64 | 210 | 2.0 | 3.0 | 0.01 | 0.01 | 0.01 | 87 | 1000.1 |
| 20260830123704 | 64 | 167 | 1.0 | 7.0 | 0.00 | 0.00 | 0.00 | 87 | 1000.1 |
| 20260830123203 | 64 | 147 | 3.0 | 9.0 | 0.00 | 0.00 | 0.00 | 87 | 1000.1 |
| 20260830122703 | 64 | 165 | 4.0 | 10.0 | 0.00 | 0.00 | 0.00 | 87 | 1000.0 |
| 20260830122204 | 64 | 216 | 3.0 | 6.0 | 0.00 | 0.00 | 0.00 | 88 | 1000.1 |
| 20260830121704 | 63 | 225 | 5.0 | 8.0 | 0.00 | 0.00 | 0.00 | 88 | 1000.0 |
| 20260830121203 | 63 | 220 | 6.0 | 10.0 | 0.00 | 0.00 | 0.00 | 88 | 1000.1 |
| 20260830120704 | 64 | 239 | 2.0 | 6.0 | 0.00 | 0.00 | 0.00 | 88 | 1000.0 |
| 20260830120203 | 64 | 182 | 3.0 | 7.0 | 0.00 | 0.00 | 0.00 | 89 | 999.9 |
| 20260830115703 | 64 | 145 | 6.0 | 9.0 | 0.00 | 0.00 | 0.00 | 90 | 999.9 |
| 20260830115204 | 63 | 147 | 2.0 | 7.0 | 0.00 | 0.00 | 0.00 | 90 | 1000.1 |
| 20260830114704 | 63 | 140 | 3.0 | 7.0 | 0.00 | 0.00 | 0.00 | 90 | 1000.0 |
| 20260830113704 | 62 | 155 | 5.0 | 9.0 | 0.00 | 0.00 | 0.00 | 90 | 1000.0 |
| 20260830112704 | 62 | 150 | 3.0 | 9.0 | 0.00 | 0.00 | 0.00 | 91 | 1000.2 |
| 20260830111704 | 62 | 150 | 5.0 | 9.0 | 0.00 | 0.00 | 0.00 | 91 | 1000.2 |
| 20260830111204 | 62 | 139 | 3.0 | 7.0 | 0.00 | 0.00 | 0.00 | 91 | 1000.3 |
| 20260830110704 | 62 | 138 | 2.0 | 5.0 | 0.00 | 0.00 | 0.00 | 91 | 1000.4 |
| 20260830110204 | 62 | 123 | 2.0 | 3.0 | 0.00 | 0.00 | 0.00 | 90 | 1000.4 |
| 20260830105704 | 62 | 120 | 3.0 | 8.0 | 0.00 | 0.00 | 0.00 | 90 | 1000.5 |
| 20260830105204 | 62 | 138 | 5.0 | 12.0 | 0.00 | 0.00 | 0.00 | 90 | 1000.4 |
| 20260830104704 | 62 | 143 | 3.0 | 6.0 | 0.00 | 0.00 | 0.00 | 90 | 1000.5 |
| 20260830104204 | 62 | 150 | 3.0 | 7.0 | 0.00 | 0.00 | 0.00 | 90 | 1000.5 |
| 20260830103704 | 63 | 168 | 4.0 | 7.0 | 0.00 | 0.00 | 0.00 | 90 | 1000.6 |
| 20260830103204 | 63 | 155 | 2.0 | 7.0 | 0.00 | 0.00 | 0.00 | 90 | 1000.6 |
| 20260830102704 | 63 | 147 | 7.0 | 10.0 | 0.00 | 0.00 | 0.00 | 90 | 1000.6 |
| 20260830101204 | 63 | 130 | 5.0 | 9.0 | 0.00 | 0.00 | 0.00 | 92 | 1000.6 |
| 20260830100703 | 62 | 101 | 4.0 | 10.0 | 0.00 | 0.00 | 0.00 | 93 | 1000.6 |
| 20260830100204 | 61 | 165 | 5.0 | 9.0 | 0.00 | 0.00 | 0.00 | 92 | 1000.7 |
| 20260830095704 | 61 | 150 | 5.0 | 10.0 | 0.00 | 0.00 | 0.00 | 92 | 1000.8 |
| 20260830094704 | 61 | 172 | 6.0 | 9.0 | 0.00 | 0.00 | 0.00 | 92 | 1000.9 |
| 20260830094204 | 61 | 163 | 8.0 | 13.0 | 0.00 | 0.00 | 0.00 | 93 | 1000.9 |
| 20260830093704 | 61 | 188 | 5.0 | 8.0 | 0.00 | 0.01 | 0.00 | 93 | 1001.0 |
| 20260830093204 | 61 | 156 | 6.0 | 14.0 | 0.00 | 0.01 | 0.00 | 93 | 1001.0 |
| 20260830092704 | 61 | 156 | 7.0 | 14.0 | 0.00 | 0.01 | 0.00 | 94 | 1001.1 |